Location: Unspecified
(61.2761°N, 0.0000°E)
Time: 11:57:04
(UTC+00:00)

NOAA 16 DEB - Visible Passes

Search period start: 04 April 2026 00:00
Search period end: 14 April 2026 00:00
Orbit: 779 x 816 km, 99.0° (Epoch: 23 March)

Date Brightness Start Highest point End Pass type
(mag) Time Alt. Az. Time Alt. Az. Time Alt. Az.
4 Apr ? 01:28:14 26° SSE 01:31:14 75° ENE 01:36:24 10° NNW visible
4 Apr ? 03:09:07 21° SW 03:11:20 29° W 03:15:49 10° NNW visible
4 Apr ? 23:21:44 10° E 23:25:15 19° NE 23:28:46 10° N visible
5 Apr ? 01:00:23 19° SE 01:03:57 52° ENE 01:08:58 10° NNW visible
5 Apr ? 02:41:15 25° SSW 02:43:44 42° W 02:48:38 10° NNW visible
5 Apr ? 04:24:18 10° W 04:24:48 10° WNW 04:25:18 10° WNW visible
5 Apr ? 19:42:05 10° N 19:43:05 11° NNW 19:44:04 10° NNW visible
5 Apr ? 22:55:27 10° ENE 22:58:19 15° NNE 23:01:10 10° N visible
6 Apr ? 00:32:31 13° ESE 00:36:45 38° NE 00:41:29 10° NNW visible
6 Apr ? 02:13:23 26° S 02:16:13 61° WSW 02:21:21 10° NNW visible
6 Apr ? 03:54:15 11° WSW 03:56:54 16° W 03:59:57 10° NW visible
6 Apr ? 22:29:21 10° NE 22:31:25 12° NNE 22:33:30 10° N visible
7 Apr ? 00:05:16 10° ESE 00:09:37 28° NE 00:13:59 10° N visible
7 Apr ? 01:45:31 23° SSE 01:48:47 88° WSW 01:53:59 10° NNW visible
7 Apr ? 03:26:23 15° SW 03:29:07 23° W 03:33:11 10° NW visible
7 Apr ? 22:03:34 10° NNE 22:04:35 11° NNE 22:05:36 10° N visible
7 Apr ? 23:38:42 10° E 23:42:34 22° NE 23:46:26 10° N visible
8 Apr ? 01:17:39 18° SE 01:21:26 65° ENE 01:26:34 10° NNW visible
8 Apr ? 02:58:31 19° SW 03:01:26 33° W 03:06:06 10° NNW visible
8 Apr ? 23:12:18 10° ENE 23:15:35 17° NE 23:18:52 10° N visible
9 Apr ? 00:49:46 13° SE 00:54:11 46° ENE 00:59:06 10° NNW visible
9 Apr ? 02:30:38 21° SSW 02:33:51 48° W 02:38:51 10° NNW visible
9 Apr ? 04:12:47 10° W 04:14:46 12° WNW 04:16:44 10° NW visible
9 Apr ? 22:46:05 10° ENE 22:48:39 14° NNE 22:51:14 10° N visible
10 Apr ? 00:22:24 10° ESE 00:26:59 34° NE 00:31:36 10° N visible
10 Apr ? 02:02:45 20° S 02:06:21 71° WSW 02:11:31 10° NNW visible
10 Apr ? 03:43:37 11° SW 03:46:54 18° W 03:50:24 10° NW visible
10 Apr ? 22:20:03 10° NE 22:21:47 12° NNE 22:23:30 10° N visible
10 Apr ? 23:55:42 10° E 23:59:52 26° NE 00:04:04 10° N visible
11 Apr ? 01:34:52 17° SSE 01:38:56 81° ENE 01:44:07 10° NNW visible
11 Apr ? 03:15:44 14° SW 03:19:07 26° W 03:23:27 10° NW visible
11 Apr ? 21:54:43 10° NNE 21:54:57 10° NNE 21:55:09 10° NNE visible
11 Apr ? 23:29:11 10° E 23:32:50 20° NE 23:36:30 10° N visible
12 Apr ? 01:06:59 12° SE 01:11:35 57° ENE 01:16:40 10° NNW visible
12 Apr ? 02:47:50 16° SSW 02:51:28 38° W 02:56:17 10° NNW visible
12 Apr ? 23:02:50 10° ENE 23:05:52 16° NNE 23:08:54 10° N visible
13 Apr ? 00:39:33 10° ESE 00:44:21 41° NE 00:49:11 10° NNW visible
13 Apr ? 02:19:57 17° S 02:23:53 56° WSW 02:29:00 10° NNW visible
13 Apr ? 22:36:39 10° NE 22:38:56 13° NNE 22:41:13 10° N visible
